Tracking 25711 objects as of 22-May-2022
HD Live streaming from Space Station
objects crossing your sky now

CZ-4 DEB

Track CZ-4 DEB now!
10-day predictions


NORAD ID: 29043
Int'l Code: 2004-035K
Perigee: 571.8 km
Apogee: 584.5 km
Inclination: 97.6 °
Period: 96.1 minutes
Semi major axis: 6949 km
RCS: 0.0201 m2 (small)
Launch date: September 8, 2004
Source: People's Republic of China (PRC)
Launch site: Taiyaun Space Center, China (TSC)

Note: This is SATELLITE DEBRIS
aabbcc
Your satellite tracking list
Your tracking list is empty




NASA's NSSDC Master Catalog

Two Line Element Set (TLE):
1 29043U 04035K   22141.86559132  .00002452  00000-0  20876-3 0  9998
2 29043  97.6489 165.9958 0009133  71.1415 289.0797 14.98681802897655
Source of the keplerian elements: AFSPC